Regional Weather Roundup
Issued by NWS

Home | Current Version | Previous Version | Graphics & Text | Print | Product List | Glossary On
Versions: 1 2 3 4 5 6 7 8 9 10 11 12 13 14 15 16 17 18 19 20 21 22 23 24 25 26 27 28 29 30 31 32 33 34 35 36 37 38 39 40 41 42 43 44 45 46 47 48 49 50
000
ASUS43 KMPX 280101
RWRMN
WEATHER ROUNDUP FOR MINNESOTA
NATIONAL WEATHER SERVICE TWIN CITIES/CHANHASSEN MN
700 PM CST THU NOV 27 2014


NOTE: "FAIR" INDICATES FEW OR NO CLOUDS BELOW 12,000 FEET WITH NO
SIGNIFICANT WEATHER AND/OR OBSTRUCTIONS TO VISIBILITY. N/A MEANS
CURRENT SKY AND/OR WEATHER CONDITIONS ARE NOT AVAILABLE.

MNZ060>063-068>070-280200-
   Twin Cities Metro

CITY           SKY/WX    TMP DP  RH WIND       PRES   REMARKS
TWIN CITIES    MOCLDY     6  -4  63 S5        30.37F WCI  -3
ST PAUL        MOCLDY     7  -1  70 S7        30.39F WCI  -5
CRYSTAL        MOCLDY     9  -2  61 S6        30.35F WCI  -1
BLAINE         PTCLDY    10   0  61 MISG      30.35F
LAKEVILLE      MOCLDY     3  -4  72 CALM      30.36F
EDEN PRAIRIE   MOCLDY     5  -4  66 S6        30.35F WCI  -6
SOUTH ST PAUL  MOCLDY     7  -2  66 S3        30.38S
LAKE ELMO      FAIR       9   1  72 S6        30.37F WCI  -1
$$
MNZ001>005-007-008-013>017-022>024-027-028-280200-
   Northwest Minnesota

CITY           SKY/WX    TMP DP  RH WIND       PRES   REMARKS
BEMIDJI        PTCLDY     4  -4  68 SE7       30.21F WCI  -8
HALLOCK        MOCLDY     5  -2  72 S14       30.23F WCI -12
ROSEAU         MOCLDY     3  -2  78 S6          N/A  WCI  -8
WARROAD        FAIR       3  -4  72 S6        30.23F WCI  -8
THIEF RVR FALL CLOUDY     3  -2  78 SE6       30.22F WCI  -8
CROOKSTON      CLOUDY     7   0  72 S7        30.25F WCI  -5
FOSSTON        CLOUDY     3  -2  78 CALM      30.21F
DETROIT LAKES  CLEAR     10   0  61 S12       30.20F WCI  -4
MOORHEAD       CLOUDY     9   0  66 SE14      30.23F WCI  -8
PARK RAPIDS    CLOUDY     6  -5  60 S10       30.21F WCI  -9
MAHNOMEN       CLOUDY     8  -2  65 S6        30.21F WCI  -2
$$
MNZ006-009>011-018-025>026-280200-
   North Central Minnesota

CITY           SKY/WX    TMP DP  RH WIND       PRES   REMARKS
BAUDETTE       PTCLDY     1  -7  68 S5        30.24F WCI  -9
FLAG ISLAND    PTCLDY     1  -4  78 SE7       30.23S WCI -11
INTL FALLS     PTCLDY    -4  -9  79 E5        30.25F WCI -15
WASKISH        MOCLDY     1  -4  78 CALM      30.24F
BIG FORK       PTCLDY     1  -6  71 CALM      30.25F
LONGVILLE      PTCLDY     5  -2  72 SE3       30.25F
GRAND RAPIDS   MOCLDY     3  -6  66 SE5       30.24F WCI  -6
CRANE LAKE     PTCLDY    -8  -9  92 CALM      30.30F
ORR            PTCLDY    -8 -11  84 CALM      30.23F
COOK           PTCLDY    -6 -11  77 CALM      30.26F
WALKER         FAIR       5  -5  63 CALM      30.23F
$$
MNZ012-019>021-037-280200-
   Northeast Minnesota

CITY           SKY/WX    TMP DP  RH WIND       PRES   REMARKS
DULUTH         MOCLDY     1  -7  68 CALM      30.27F
ELY            PTCLDY    -9 -13  84 CALM      30.25F
HIBBING        PTCLDY    -2  -9  72 CALM      30.26F
EVELETH        PTCLDY    -2  -8  78 CALM      30.27F
DULUTH HARBOR  MOCLDY     9  -2  61 CALM      30.36F
TWO HARBORS    PTCLDY     3  -4  72 CALM      30.28F
SILVER BAY     PTCLDY     3  -8  60 CALM      30.28F
GRAND MARAIS     N/A      5  -5  63 NW6       30.34F WCI  -6
G MARAIS ARPRT PTCLDY    -6 -11  77 CALM      30.22F
$$
MNZ029>031-032-039>041-046>048-054>057-064-280200-
   West Central Minnesota

CITY           SKY/WX    TMP DP  RH WIND       PRES   REMARKS
FERGUS FALLS   CLOUDY     7  -4  61 SE13      30.27F WCI  -9
WHEATON        LGT SNOW   3   0  85 SE16      30.25F WCI -16
MORRIS         MOCLDY     5  -2  72 SE18      30.24F WCI -15
ALEXANDRIA     CLOUDY     6  -3  66 S14       30.23F WCI -11
ELBOW LAKE     CLOUDY     5  -4  66 SE13      30.23F WCI -11
WADENA         MOCLDY     3  -6  66 S9        30.23F WCI -11
GLENWOOD       CLOUDY     5  -2  72 SE12      30.25F WCI -11
APPLETON       MOCLDY     7  -2  66 SE12      30.26F WCI  -9
BENSON         CLOUDY     5  -2  72 S5        30.27S WCI  -4
ORTONVILLE     CLOUDY     7  -2  66 SE13      30.23F WCI  -9
MADISON        MOCLDY    10   3  72 SE16      30.26S WCI  -7
WILLMAR        FAIR       7  -2  66 SE13      30.28F WCI  -9
$$
MNZ033>034-036-042>043-049>051-058-059-280200-
   Central Minnesota

CITY           SKY/WX    TMP DP  RH WIND       PRES   REMARKS
ST CLOUD       MOCLDY     7  -4  60 SE12      30.31F WCI  -8
SAUK CENTRE    CLOUDY     5  -2  72 SE10      30.27F WCI -10
PAYNESVILLE    CLOUDY     3  -4  71 E9        30.29F WCI -11
AITKIN         CLEAR      7   0  72 CALM      30.26F
PINE RIVER     MOCLDY     5  -2  72 S6        30.28F WCI  -6
BRAINERD       PTCLDY     3  -5  69 S5        30.27F WCI  -6
STAPLES        CLOUDY     3  -6  66 SE7       30.24F WCI  -9
LONG PRAIRIE   CLOUDY     5  -4  66 SE10      30.26F WCI -10
LITTLE FALLS   PTCLDY     7  -4  61 SE6       30.29F WCI  -3
LITCHFIELD     CLOUDY     5  -2  72 SE6       30.31F WCI  -6
BUFFALO        MOCLDY     6  -3  66 SE5       30.34F WCI  -3
MAPLE LAKE     PTCLDY     6  -1  70 SE7       30.33F WCI  -5
$$
MNZ037-044-045-052-053-280200-
   East Central Minnesota

CITY           SKY/WX    TMP DP  RH WIND       PRES   REMARKS
PRINCETON      PTCLDY     9  -2  61 CALM      30.32F
MORA             N/A    N/A N/A N/A MISG        N/A
CAMBRIDGE      PTCLDY     9  -2  61 CALM      30.32F
RUSH CITY      PTCLDY     6  -2  69 CALM      30.35F
MOOSE LAKE     PTCLDY     7  -4  61 S5        30.30F WCI  -2
HINCKLEY       FAIR       7   0  72 CALM      30.33F
CLOQUET        MOCLDY     3  -8  60 CALM      30.29S
MCGREGOR       PTCLDY     9   0  66 S3        30.29F
$$
MNZ071>073-080-081-089-090-097-098-280200-
   Southwest Minnesota

CITY           SKY/WX    TMP DP  RH WIND       PRES   REMARKS
MONTEVIDEO     CLOUDY     5  -4  66 S13       30.28F WCI -12
GRANITE FALLS  CLOUDY     4  -3  72 SE13      30.29F WCI -13
CANBY          CLOUDY     8   3  82 SE10      30.25S WCI  -7
MARSHALL       CLOUDY     9   0  66 SE12      30.24F WCI  -6
REDWOOD FALLS  CLOUDY     3  -4  72 SE14      30.30F WCI -15
OLIVIA         PTCLDY     5   0  78 SE12      30.28F WCI -11
PIPESTONE      CLOUDY    10   3  72 S12       30.19R WCI  -4
WINDOM         CLOUDY     3  -2  78 SE12      30.26F WCI -13
WORTHINGTON    CLOUDY     7   0  72 SE10      30.23F WCI  -8
JACKSON        CLOUDY     5  -2  72 SE14      30.27F WCI -12
TRACY          CLOUDY    10   3  75 SE12      30.24F WCI  -5
SLAYTON        CLOUDY     9   1  72 SE14      30.22F WCI  -8
$$
MNZ065>067-074>077-082>085-091>093-280200-
   South Central Minnesota

CITY           SKY/WX    TMP DP  RH WIND       PRES   REMARKS
MANKATO        MOCLDY     0  -8  71 S8        30.33F WCI -15
NEW ULM        CLOUDY     0  -6  78 SE9       30.31F WCI -16
ST JAMES       CLOUDY     3  -2  78 SE13      30.32F WCI -14
FAIRMONT       CLOUDY     0  -4  85 SE10      30.30F WCI -17
GLENCOE        PTCLDY     5  -1  76 SE7       30.33F WCI  -7
FARIBAULT      MOCLDY     1  -4  78 SE3       30.35F
OWATONNA       PTCLDY     3  -4  72 SE7       30.33F WCI  -9
WASECA         CLOUDY     0  -8  71 SE5       30.35F WCI -10
ALBERT LEA     FAIR       3  -2  78 SE6       30.34F WCI  -8
$$
MNZ078>079-086>088-094>096-280200-
   Southeast Minnesota

CITY           SKY/WX    TMP DP  RH WIND       PRES   REMARKS
ROCHESTER      MOCLDY     2  -4  76 S5        30.34F WCI  -8
RED WING       PTCLDY     7  -2  66 CALM      30.39S
STANTON        PTCLDY     5  -3  69 S3        30.37R
DODGE CENTER   MOCLDY     1  -2  85 SW3       30.33S
WINONA         MOCLDY    10   1  67 CALM      30.42F
AUSTIN         MOCLDY     1  -4  78 CALM      30.34F
PRESTON        PTCLDY     2  -4  75 CALM      30.34F
$$
ABBREVIATIONS USED IN REMARKS
   TC - TEMPERATURES IN CELSIUS
  WCI - WIND CHILL INDEX
   HX - HEAT INDEX
  VSB - VISIBILITY
$$


USA.gov is the U.S. government's official web portal to all federal, state and local government web resources and services.